SCP
0 0 0 0 0 0 0 0 0 0 0 0 0 0 0 0 0 0 0 0 0 0 0 0 0 0 0 0 0 0 0 0 0 0 0 0 0 0 0 0 0 0 0
0 0 0 0 0 0 0 0 0 0 0 0 0 0 0 0 0 0 0 0 0 0 0 0 0 0 0 0 0 0 0 0 0 0 0 0 0 0 0 0 0 0 0
0 0 0 0 0 0 0 0 0 0 0 0 0 0 0 0 0 0 0 0 0 0 0 0 0 0 0 0 0 0 0 0 0 0 0 0 0 0 0 0 0 0 0
0 0 0 0 0 0 0 0 0 0 0 0 0 0 0 0 0 0 0 0 0 0 0 0 0 0 0 0 0 0 0 0 0 0 0 0 0 0 0 0 0 0 0
0 0 0 0 0 0 0 0 0 0 0 0 0 0 0 0 0 0 0 0 0 0 0 0 0 0 0 0 0 0 0 0 0 0 0 0 0 0 0 0 0 0 0
0 0 0 0 0 0 0 0 0 0 0 0 0 0 0 0 0 0 0 0 0 0 0 0 0 0 0 0 0 0 0 0 0 0 0 0 0 0 0 0 0 0 0
0 0 0 0 0 0 0 0 0 0 0 0 0 0 0 0 0 0 0 0 0 0 0 0 0 0 0 0 0 0 0 0 0 0 0 0 0 0 0 0 0 0 0
0 0 0 0 0 0 0 0 0 0 0 0 0 0 0 0 0 0 0 0 0 0 0 0 0 0 0 0 0 0 0 0 0 0 0 0 0 0 0 0 0 0 0
0 0 0 0 0 0 0 0 0 0 0 0 0 0 0 0 0 0 0 0 0 0 0 0 0 0 0 0 0 0 0 0 0 0 0 0 0 0 0 0 0 0 0
0 0 0 0 0 0 0 0 0 0 0 0 0 0 0 0 0 0 0 0 0 0 0 0 0 0 0 0 0 0 0 0 0 0 0 0 0 0 0 0 0 0 0
0 0 0 0 0 0 0 0 0 0 0 0 0 0 0 0 0 0 0 0 0 0 0 0 0 0 0 0 0 0 0 0 0 0 0 0 0 0 0 0 0 1 1
0 0 0 0 0 0 0 0 0 0 0 0 0 0 0 0 0 0 0 0 0 0 0 0 0 0 0 0 0 0 0 0 0 0 0 0 0 0 0 1 1 1 1
0 0 0 0 0 0 0 0 0 0 0 0 0 0 0 0 0 0 0 0 0 0 0 0 0 0 0 0 0 0 0 0 0 0 0 0 0 0 0 1 1 1 1
0 0 0 0 0 0 0 0 0 0 0 0 0 0 0 0 0 0 0 0 0 0 0 0 0 0 0 0 0 0 0 0 0 0 0 0 0 0 0 0 0 0 0
0 0 0 0 0 0 0 0 0 0 0 0 0 0 0 0 0 0 0 0 0 0 0 0 0 0 0 0 0 0 0 0 0 0 0 0 0 0 0 0 0 0 0
0 0 0 0 0 0 0 0 0 0 0 0 0 0 0 0 0 0 0 0 0 0 0 0 0 0 0 0 0 0 0 0 0 0 0 0 0 0 0 0 0 0 0
0 0 0 0 0 0 0 0 0 0 0 0 0 0 0 0 0 0 0 0 0 0 0 0 0 0 0 0 0 0 0 0 0 0 0 0 0 0 0 0 0 0 0
0 0 0 0 0 0 0 0 0 0 0 0 0 0 0 0 0 0 0 0 0 0 0 0 0 0 0 0 0 0 0 0 0 0 0 0 0 0 0 0 0 0 0
0 0 0 0 0 0 0 0 0 0 0 0 0 0 0 0 0 0 0 0 0 0 0 0 0 0 0 0 0 0 0 0 0 0 0 0 0 0 0 0 0 0 0
0 0 0 0 0 0 0 0 0 0 0 0 0 0 0 0 0 0 0 0 0 0 0 0 0 0 0 0 0 0 0 0 0 0 0 0 0 0 0 0 0 0 0
0 0 0 0 0 0 0 0 0 0 0 0 0 0 0 0 0 0 0 0 0 0 0 0 0 0 0 0 0 0 0 0 0 0 0 0 0 0 0 0 0 0 0
0 0 0 0 0 0 0 0 0 0 0 0 0 0 0 0 0 0 0 0 0 0 0 0 0 0 0 0 0 0 0 0 0 0 0 0 0 0 0 0 0 0 0
0 0 0 0 0 0 0 0 0 0 0 0 0 0 0 0 0 0 0 0 0 0 0 0 0 0 0 0 0 0 0 0 0 0 0 0 0 0 0 0 0 0 0
0 0 0 0 0 0 0 0 0 0 0 0 0 0 0 0 0 0 0 0 0 0 0 0 0 0 0 0 0 0 0 0 0 0 0 0 0 0 0 0 0 0 0
0 0 0 0 0 0 0 0 0 0 0 0 0 0 0 0 0 0 0 0 0 0 0 0 0 0 0 0 0 0 0 0 0 0 0 0 0 0 0 0 0 0 0
0 0 0 0 0 0 0 0 0 0 0 0 0 0 0 0 0 0 0 0 0 0 0 0 0 0 0 0 0 0 0 0 0 0 0 0 0 0 0 0 0 0 0
Wind_Speed
3 4 3 4 5 4 4 4 4 4 5 5 5 5 6 5 5 5 4 14 17 18 18 17 17 16 16 16 16 16 16 15 15 14 13 12 11 10 10 10 10 10 11
5 5 5 5 4 4 4 4 4 4 4 3 5 5 5 4 5 5 5 8 16 18 18 18 17 16 16 15 15 15 16 16 15 14 14 13 12 12 11 11 11 11 12
7 6 5 5 4 4 4 4 4 4 4 4 4 4 4 3 4 4 4 4 5 14 17 17 18 16 15 15 16 16 15 15 15 15 14 14 14 13 13 13 13 13 13
8 7 6 5 4 3 3 4 4 4 4 4 4 3 3 2 3 3 3 3 3 5 9 16 17 16 15 15 16 17 16 16 15 15 15 15 15 15 15 15 15 15 15
8 8 6 4 4 4 4 4 4 4 4 5 5 3 2 1 1 2 2 2 3 3 4 9 16 15 14 16 17 18 18 17 16 15 16 16 16 17 17 17 17 18 18
9 8 6 5 4 5 5 4 5 4 3 4 5 5 3 2 1 0 1 1 2 4 5 4 5 8 14 17 18 19 19 18 17 16 17 18 18 19 19 19 19 20 20
8 7 6 5 5 5 5 4 3 5 5 4 4 5 4 2 2 2 1 1 2 4 5 5 5 4 5 15 18 19 19 19 18 18 19 20 20 21 21 21 21 22 22
8 7 7 5 5 5 6 6 5 3 3 4 3 3 6 6 5 3 3 2 3 4 5 7 7 6 6 5 11 20 19 18 18 20 21 22 22 23 23 23 23 24 24
8 7 7 6 6 5 5 5 5 4 3 3 3 3 3 4 5 5 5 3 4 4 4 5 7 7 9 7 7 13 18 18 20 22 23 24 25 25 25 25 25 25 25
7 7 7 7 6 5 5 4 4 3 3 2 3 2 1 2 3 6 5 3 4 5 6 7 8 10 9 7 9 16 18 20 22 24 25 26 27 26 26 26 27 27 27
6 6 6 6 6 5 5 4 4 3 2 1 1 1 2 2 3 4 7 5 5 4 5 7 8 8 8 7 6 11 20 23 25 26 27 28 27 28 28 28 28 28 28
5 6 6 6 5 4 4 4 3 3 1 0 1 1 1 2 2 3 6 10 10 6 8 8 7 6 6 5 9 20 24 25 26 27 28 28 29 29 29 29 29 29 29
4 5 5 5 4 4 4 3 2 2 1 1 2 2 2 3 3 3 5 10 12 7 5 4 4 6 7 5 7 23 23 26 27 28 30 31 31 31 30 30 31 31 31
4 5 5 5 5 4 3 3 1 2 1 2 3 3 3 4 3 3 3 7 13 7 4 6 4 5 4 5 13 25 15 26 29 31 32 33 32 31 31 31 32 33 33
5 6 5 5 4 3 3 2 1 2 2 2 4 4 4 4 4 4 4 4 6 13 14 5 3 3 5 6 14 11 10 22 31 33 33 33 32 32 32 33 34 35 36
6 6 5 4 3 3 3 2 2 2 3 3 3 4 5 4 4 4 4 5 6 10 15 7 8 8 8 11 18 13 11 28 30 31 31 31 31 32 35 37 38 37 37
6 6 5 4 3 3 3 2 3 3 4 5 5 5 6 6 5 5 5 6 7 8 15 15 11 9 10 10 12 10 11 11 13 25 28 31 34 36 37 37 37 36 35
6 5 5 4 3 3 3 3 4 5 5 6 6 6 7 6 6 6 6 8 8 9 12 18 15 12 12 11 12 11 12 12 9 21 30 33 35 35 35 35 34 34 34
6 5 5 4 3 3 3 3 4 5 5 5 6 6 7 7 8 7 8 9 9 10 9 13 16 13 12 10 11 12 11 9 12 18 25 28 30 32 34 34 34 34 34
6 5 4 3 3 3 4 4 4 4 4 4 5 6 7 8 9 9 9 9 8 9 10 12 14 13 12 10 10 11 12 9 11 12 18 22 27 31 32 34 34 34 33
6 4 3 3 3 3 4 6 4 4 4 5 6 7 8 13 16 13 12 10 10 11 12 12 13 13 12 12 13 12 15 14 12 10 12 12 12 12 15 23 28 31 32
4 3 3 3 4 4 10 14 10 4 4 5 7 8 9 11 15 21 24 24 21 16 14 12 12 14 16 14 13 14 15 16 15 6 9 14 11 13 12 10 23 31 32
3 3 3 3 4 6 12 15 15 7 4 6 8 9 9 11 16 11 18 22 19 22 23 16 15 15 16 16 17 18 16 16 17 13 13 17 12 14 13 15 28 32 33
2 2 3 4 4 7 14 15 17 7 6 7 8 9 10 10 12 17 15 12 10 11 16 13 11 14 15 14 15 16 17 17 16 11 10 15 14 14 15 13 25 32 33
2 2 3 4 5 7 13 16 17 5 6 8 8 9 11 10 20 26 17 13 13 12 17 22 24 23 27 27 21 13 13 13 16 13 7 10 13 14 14 14 17 27 29
2 3 4 4 5 6 13 17 18 5 6 7 6 7 14 19 24 26 14 11 13 14 14 14 15 18 16 17 21 13 11 13 14 12 6 6 10 12 11 8 8 10 14
Wind_Direction
116 96 81 71 65 61 66 68 62 54 43 36 33 33 24 20 24 25 22 43 45 39 36 32 27 25 23 24 27 25 22 18 15 11 7 3 358 351 345 340 334 328 321
120 107 93 79 71 68 70 72 64 51 42 34 32 30 29 28 34 35 32 39 46 39 33 28 21 17 15 13 12 12 9 5 360 356 352 347 343 339 333 326 323 320 318
118 110 98 86 75 69 68 64 55 44 35 25 22 24 31 36 46 45 42 44 47 39 31 26 18 11 9 5 2 358 354 351 346 341 337 332 328 323 318 314 311 309 306
115 106 97 87 77 69 65 62 39 36 23 9 354 1 22 23 50 53 51 56 66 52 28 24 15 4 360 355 351 346 341 338 334 330 327 322 318 313 308 304 301 299 296
108 103 97 91 84 69 52 55 46 39 21 356 334 340 6 342 36 54 57 65 68 59 39 17 9 356 350 345 341 336 331 328 324 322 321 318 314 309 305 300 297 294 291
107 104 97 88 82 71 52 47 50 37 27 351 330 327 326 318 286 2 31 28 36 38 34 13 357 339 341 338 334 328 323 320 317 316 316 314 311 306 302 298 295 291 288
107 102 99 86 78 76 63 47 47 33 16 1 357 336 333 330 298 273 303 292 354 19 21 357 336 317 313 327 326 320 318 313 312 312 312 310 306 302 299 296 292 289 287
104 100 99 95 88 85 65 50 47 42 14 23 29 359 345 338 339 333 327 306 352 9 1 340 319 306 300 296 303 314 311 305 307 308 308 306 303 299 295 292 290 287 285
95 98 99 98 87 85 78 64 55 61 20 3 38 53 12 311 310 311 315 322 342 347 326 312 306 305 299 293 293 302 301 300 302 304 305 303 299 295 292 290 288 285 284
93 95 95 91 86 81 77 67 66 63 58 13 353 20 242 243 290 308 301 303 311 311 297 307 303 292 287 284 287 300 301 296 298 301 301 299 296 293 291 289 287 286 285
86 89 88 85 82 79 77 66 59 52 65 77 337 326 319 296 247 267 291 302 301 276 283 284 284 284 283 279 278 287 296 298 299 300 299 297 295 293 291 290 289 288 288
83 83 84 83 82 77 70 60 54 45 40 16 263 246 246 271 282 275 286 304 304 292 284 277 276 276 277 279 288 305 305 301 300 299 297 296 294 293 292 293 292 290 289
97 89 87 82 75 69 68 59 46 18 348 321 288 262 248 245 245 255 285 304 302 294 270 255 257 274 286 296 308 306 302 301 300 299 297 296 295 294 293 292 291 290 289
113 107 94 83 74 65 61 50 30 337 328 307 289 278 267 259 244 248 270 305 310 300 253 264 266 257 277 294 293 299 298 297 297 296 295 294 293 292 292 291 291 289 288
110 100 92 83 70 58 44 28 351 319 313 288 277 272 259 253 247 249 251 262 289 304 308 281 266 270 274 278 284 287 278 288 293 293 293 292 292 291 290 290 290 288 286
100 98 88 78 61 43 20 4 327 312 311 293 273 274 268 256 251 248 246 252 254 276 290 290 292 287 279 289 294 292 284 291 294 293 291 290 290 291 291 289 287 286 283
101 95 87 73 53 31 3 353 326 314 311 302 297 289 278 272 262 255 253 258 259 264 281 293 291 290 284 282 288 277 276 274 277 285 288 290 289 288 288 287 286 285 283
98 93 83 69 44 15 353 343 324 320 309 304 301 299 293 294 278 268 266 265 266 263 275 291 298 299 293 288 285 282 291 289 279 284 289 290 290 291 290 288 287 285 284
94 84 78 63 28 354 338 324 310 305 303 303 305 303 298 294 286 278 273 272 271 277 277 288 295 296 294 294 295 293 287 280 282 289 293 292 290 290 288 288 287 287 286
93 84 77 57 13 339 322 309 305 301 304 309 304 296 292 289 283 281 281 275 283 290 287 287 290 295 298 299 299 302 300 286 286 290 288 287 288 290 289 289 289 288 286
92 88 74 38 2 335 317 315 304 294 291 296 293 287 287 299 302 303 305 305 300 295 295 296 299 303 305 308 306 304 301 299 288 281 283 284 283 279 279 281 283 282 281
86 70 47 16 351 334 323 326 324 295 277 289 294 291 290 295 300 312 312 307 305 305 305 304 306 304 303 303 302 300 300 301 299 290 283 290 284 282 279 273 278 280 280
76 51 21 352 327 317 327 327 322 320 294 290 291 294 301 304 312 297 296 302 304 305 307 305 300 298 299 300 300 301 299 298 297 301 298 293 290 285 283 281 284 284 283
62 35 344 331 325 322 331 325 321 326 293 284 284 287 290 293 297 304 303 306 300 299 300 299 288 290 294 297 297 300 299 297 293 289 286 289 293 288 288 283 284 282 282
40 352 326 330 324 316 324 322 325 302 287 286 286 289 300 299 303 312 316 311 307 305 308 305 304 305 306 308 307 305 304 303 301 299 287 279 287 293 287 280 277 281 282
11 339 328 320 310 302 315 324 325 301 294 294 290 286 305 311 312 318 319 313 313 309 309 312 311 307 301 298 304 304 301 298 299 300 283 274 291 302 296 269 259 272 278